Location: Fauquembergues
(50.6005°N, 2.0987°E)
Time: 00:32:36
(UTC+00:00)

Meteor 1-19 Rocket - Pass Details

Date: 14 July 2020
Orbit: 811 x 924 km, 81.2° (Epoch: 03 August)

Event Time Altitude Azimuth Distance (km) Brightness Sun altitude
Rises 01:15:19 0° 345° (NNW) 3,461 8.4 -15.8°
Reaches altitude 10° 01:17:47 10° 344° (NNW) 2,502 7.5 -15.6°
Maximum altitude 01:23:25 71° 262° (W) 891 4.2 -15.3°
Enters shadow 01:27:07 21° 182° (S) 1,769 5.3 -15.1°
